Berlin, NH

6:11 AM EST on December 15, 2017 (GMT -0500)
Berlin Municipal

Weather History for KBML - August, 2013

Change the Weather History Date:

Tuesday, August 20, 2013

  Actual Average Record
Temperature  
Mean Temperature 65 °F -  
Max Temperature 82 °F 74 °F 84 °F (2011)
Min Temperature 48 °F 46 °F 32 °F (2007)
Growing Degree Days 15 (Base 50)    
Moisture  
Dew Point 54 °F    
Average Humidity 83    
Maximum Humidity 100    
Minimum Humidity 36    
Precipitation  
Precipitation 0.00 in - - ()
Sea Level Pressure  
Sea Level Pressure 30.07 in    
Wind  
Wind Speed 1 mph (WNW)    
Max Wind Speed 9 mph    
Max Gust Speed 17 mph    
Visibility 6 miles    
Events Fog    
Averages and records for this station are not official NWS values.
T = Trace of Precipitation, MM = Missing Value Source: NWS Daily Summary

Daily Weather History Graph

Daily Weather History Graph

Search for Another Location

Airport or City:

Trip Planner

Search our weather history database for the weather conditions in past years. The results will help you decide how hot, cold, wet, or windy it might be!

Date:

Astronomy

Aug. 20, 2013 Rise Set
Actual Time 5:53 AM EDT 7:41 PM EDT
Civil Twilight 5:22 AM EDT 8:12 PM EDT
Nautical Twilight 4:44 AM EDT 8:50 PM EDT
Astronomical Twilight 4:02 AM EDT 9:31 PM EDT
Moon 7:08 PM EDT (8/20) 5:20 AM EDT (8/20)
Length of Visible Light 14h 50m
Length of Day
13h 48m
Full, 100% of the Moon is Illuminated
Aug 20
Full
Aug 20
Full
Aug 28
Last Quarter
Sep 5
New
Sep 12
First Quarter

Hourly Weather History & Observations

Time (EDT) Temp. Heat Index Dew Point Humidity Pressure Visibility Wind Dir Wind Speed Gust Speed Precip Events Conditions
12:52 AM 57.9 °F - 57.0 °F 97% 30.01 in 7.0 mi Calm Calm - N/A   Clear
1:52 AM 55.0 °F - 54.0 °F 96% 30.03 in 6.0 mi Calm Calm - N/A   Clear
2:52 AM 54.0 °F - 53.1 °F 97% 30.03 in 4.0 mi Calm Calm - N/A   Clear
3:20 AM 53.6 °F - 51.8 °F 94% 30.04 in 5.0 mi Calm Calm - N/A   Partly Cloudy
3:52 AM 53.1 °F - 52.0 °F 96% 30.04 in 5.0 mi Calm Calm - N/A   Clear
4:18 AM 51.8 °F - 51.8 °F 100% 30.04 in 6.0 mi Calm Calm - N/A   Partly Cloudy
4:52 AM 51.1 °F - 50.0 °F 96% 30.04 in 6.0 mi Calm Calm - N/A   Partly Cloudy
5:17 AM 51.8 °F - 50.0 °F 94% 30.05 in 2.0 mi Calm Calm - N/A   Mostly Cloudy
5:32 AM 50.0 °F - 48.2 °F 94% 30.05 in 7.0 mi Calm Calm - N/A   Mostly Cloudy
5:52 AM 50.0 °F - 50.0 °F 100% 30.05 in 1.8 mi Calm Calm - N/A   Overcast
5:58 AM 48.2 °F - 48.2 °F 100% 30.06 in 1.0 mi Calm Calm - N/A   Overcast
6:09 AM 51.8 °F - 50.0 °F 94% 30.06 in 3.0 mi Calm Calm - N/A   Overcast
6:17 AM 50.0 °F - 48.2 °F 94% 30.06 in 1.8 mi Calm Calm - N/A   Overcast
6:19 AM 50.0 °F - 48.2 °F 94% 30.06 in 0.8 mi Calm Calm - N/A   Mist
6:32 AM 51.8 °F - 51.8 °F 100% 30.06 in 2.0 mi Calm Calm - N/A   Overcast
6:41 AM 50.0 °F - 50.0 °F 100% 30.07 in 0.5 mi Calm Calm - N/A Fog Fog
6:48 AM 51.8 °F - 50.0 °F 94% 30.07 in 0.2 mi Calm Calm - N/A Fog Fog
6:52 AM 51.1 °F - 51.1 °F 100% 30.07 in 0.2 mi Calm Calm - N/A Fog Fog
7:17 AM 53.6 °F - 53.6 °F 100% 30.08 in 1.0 mi Calm Calm - N/A   Mist
7:19 AM 53.6 °F - 53.6 °F 100% 30.08 in 2.0 mi Calm Calm - N/A   Mostly Cloudy
7:23 AM 53.6 °F - 53.6 °F 100% 30.08 in 3.0 mi Calm Calm - N/A   Scattered Clouds
7:52 AM 55.9 °F - 55.0 °F 97% 30.08 in 4.0 mi Calm Calm - N/A   Clear
8:52 AM 64.9 °F - 59.0 °F 81% 30.08 in 9.0 mi Calm Calm - N/A   Clear
9:52 AM 73.0 °F - 60.1 °F 64% 30.08 in 10.0 mi Calm Calm - N/A   Clear
10:52 AM 75.9 °F - 59.0 °F 56% 30.08 in 10.0 mi NW 4.6 mph - N/A   Clear
11:52 AM 78.1 °F - 57.9 °F 50% 30.08 in 10.0 mi WNW 6.9 mph - N/A   Clear
12:52 PM 79.0 °F - 57.0 °F 47% 30.07 in 10.0 mi WNW 9.2 mph 17.3 mph N/A   Clear
1:52 PM 81.0 °F 80.8 °F 55.9 °F 42% 30.07 in 10.0 mi Variable 6.9 mph - N/A   Clear
2:52 PM 82.0 °F 81.6 °F 55.9 °F 41% 30.06 in 10.0 mi Variable 3.5 mph - N/A   Clear
3:52 PM 81.0 °F - 52.0 °F 36% 30.06 in 10.0 mi Variable 6.9 mph - N/A   Clear
4:52 PM 81.0 °F 80.7 °F 55.0 °F 41% 30.06 in 10.0 mi Variable 5.8 mph - N/A   Clear
5:52 PM 80.1 °F 80.6 °F 57.9 °F 47% 30.07 in 10.0 mi WNW 5.8 mph - N/A   Scattered Clouds
6:52 PM 75.9 °F - 57.9 °F 54% 30.08 in 10.0 mi Calm Calm - N/A   Clear
7:52 PM 68.0 °F - 63.0 °F 84% 30.09 in 10.0 mi Calm Calm - N/A   Clear
8:52 PM 63.0 °F - 61.0 °F 93% 30.10 in 9.0 mi Calm Calm - N/A   Clear
9:52 PM 62.1 °F - 59.0 °F 90% 30.10 in 7.0 mi Calm Calm - N/A   Clear
10:52 PM 59.0 °F - 57.0 °F 93% 30.11 in 5.0 mi Calm Calm - N/A   Clear
11:52 PM 55.9 °F - 55.0 °F 97% 30.12 in 6.0 mi Calm Calm - N/A   Clear